Location: Aucun
(42.9667°N, 0.1667°W)
Time: 21:45:14
(UTC+00:00)

STARLINK-1065 - Pass Details

Date: 17 February 2020
Orbit: 547 x 551 km, 53.0° (Epoch: 29 March)

Event Time Altitude Azimuth Distance (km) Brightness Sun altitude
Exits shadow 05:04:37 51° 208° (SSW) 701 3.9 -21.0°
Drops below altitude 10° 05:08:23 10° 146° (SE) 1,820 6.7 -20.4°
Sets 05:10:39 0° 141° (SE) 2,711 7.7 -19.9°
